Stations météo

Publicité
Bordeaux/Merignac, France (7510): Température de l'air & dewpoint: 14.09.2018 06:00:00 - 20.09.2018 06:00:00 (CEST)Bordeaux/Merignac, France (7510): Température de l'air 5cm: 14.09.2018 06:00:00 - 20.09.2018 06:00:00 (CEST)Bordeaux/Merignac, France (7510): Température de l'air -20cm & Température de l'air -100cm: 14.09.2018 06:00:00 - 20.09.2018 06:00:00 (CEST)Bordeaux/Merignac, France (7510): Vitesse du vent & gusts: 14.09.2018 06:00:00 - 20.09.2018 06:00:00 (CEST)Bordeaux/Merignac, France (7510): Direction du vent: 14.09.2018 06:00:00 - 20.09.2018 06:00:00 (CEST)Bordeaux/Merignac, France (7510): reduced air pressure: 14.09.2018 06:00:00 - 20.09.2018 06:00:00 (CEST)Bordeaux/Merignac, France (7510): visibility: 14.09.2018 06:00:00 - 20.09.2018 06:00:00 (CEST)Bordeaux/Merignac, France (7510): Quantités de précipitations: 14.09.2018 06:00:00 - 20.09.2018 06:00:00 (CEST)
Date & Time tt [°C] td [°C] tt 5cm [°C] tt -20cm [°C] tt -100cm [°C] ff [km/h] ff [knt] fx [km/h] fx [knt] dd ppp [hPa] vv [km] rr [mm]
20.09.2018 06:00:00 17,8 15,8 16,3 24,6 23,2 5 3 8 5 ENE 1021,3 3,3 0,0
20.09.2018 05:00:00 18,3 16,3 17,4 24,8 23,2 6 4 8 5 N 1021,6 13 0,0
20.09.2018 04:00:00 17,4 16,6 14,4 25,0 23,2 0 0 3 2 N 1022,0 5 0,0
20.09.2018 03:00:00 17,2 15,9 15,0 25,2 23,2 0 0 5 3 N 1022,2 1,2 0,0
20.09.2018 02:00:00 17,8 16,0 15,9 25,5 23,2 4 2 10 5 WNW 1022,1 10 0,0
20.09.2018 01:00:00 18,5 16,3 17,7 25,7 23,1 5 3 11 6 NNW 1022,2 17 0,0
20.09.2018 00:00:00 19,1 16,1 18,3 25,9 23,2 9 5 14 8 N 1022,1 25 0,0
19.09.2018 23:00:00 20,0 15,4 19,2 26,1 23,1 11 6 21 11 N 1022,0 30 0,0
19.09.2018 22:00:00 21,3 14,9 20,3 26,3 23,2 14 7 21 11 N 1021,6 44 0,0
19.09.2018 21:00:00 22,1 15,2 21,3 26,4 23,1 11 6 24 13 N 1021,1 46 0,0
19.09.2018 20:00:00 23,6 16,1 23,3 26,5 23,2 13 7 24 13 N 1020,8 45 0,0
19.09.2018 19:00:00 25,6 16,7 28,4 26,4 23,1 15 8 25 14 N 1020,7 40 0,0
19.09.2018 18:00:00 26,6 16,5 30,4 26,1 23,1 16 8 27 14 NNE 1020,6 34 0,0
19.09.2018 17:00:00 27,1 16,4 28,4 25,8 23,1 16 9 28 15 NNE 1020,7 26 0,0
19.09.2018 16:00:00 27,9 16,2 31,5 25,4 23,1 17 9 30 16 N 1021,1 39 0,0
19.09.2018 15:00:00 28,3 15,9 32,0 24,9 23,1 15 8 26 14 NNE 1021,2 34 0,0
19.09.2018 14:00:00 27,2 15,2 33,3 24,5 23,1 6 4 23 12 NNE 1021,6 47 0,0
19.09.2018 13:00:00 26,6 15,0 30,4 24,1 23,1 4 2 14 8 E 1021,7 20 0,0
19.09.2018 12:00:00 25,0 15,0 28,5 23,9 23,1 5 3 14 8 NE 1021,9 41 0,0
19.09.2018 11:00:00 23,4 16,0 25,2 23,9 23,1 8 5 16 9 ENE 1022,1 41 0,0
19.09.2018 10:00:00 22,0 16,7 21,9 24,0 23,1 9 5 14 7 E 1021,5 20 0,0
19.09.2018 09:00:00 20,0 17,0 18,6 24,1 23,1 5 3 9 5 E 1021,1 27 0,0
19.09.2018 08:00:00 18,6 17,4 17,0 24,2 23,1 5 3 13 7 E 1020,6 20 0,0
19.09.2018 07:00:00 17,7 17,1 14,4 24,4 23,1 5 3 22 12 NE 1020,3 1,2 0,0
19.09.2018 06:00:00 17,3 16,5 14,4 24,6 23,1 3 1 8 4 N 1019,9 0,7 0,0
19.09.2018 05:00:00 17,5 16,0 14,6 24,8 23,1 3 2 6 4 NNE 1019,8 9 0,0
19.09.2018 04:00:00 18,4 16,2 16,7 24,9 23,1 4 2 9 5 WNW 1019,8 26 0,0
19.09.2018 03:00:00 19,3 16,5 18,7 25,0 23,0 6 3 11 6 NW 1020,4 32 0,0
19.09.2018 02:00:00 19,3 16,5 19,2 25,2 23,1 8 4 12 6 NW 1020,3 31 0,0
19.09.2018 01:00:00 19,9 16,9 19,0 25,4 23,1 6 3 11 6 NNW 1019,8 32 0,0
19.09.2018 00:00:00 20,4 16,4 19,8 25,6 23,1 5 3 11 6 NNW 1019,2 37 0,0
18.09.2018 23:00:00 20,9 16,5 19,9 25,8 23,1 6 3 12 7 N 1018,7 42 0,0
18.09.2018 22:00:00 21,7 16,4 21,0 26,0 23,1 8 5 25 14 N 1018,4 45 0,0
18.09.2018 21:00:00 23,3 17,1 22,5 26,0 23,0 14 7 24 13 NW 1017,8 42 0,0
18.09.2018 20:00:00 25,8 16,9 25,4 26,0 23,0 8 4 15 8 N 1016,8 20 0,0
18.09.2018 19:00:00 27,0 16,9 29,5 25,9 23,1 10 5 23 12 NNE 1016,4 19 0,0
18.09.2018 18:00:00 27,3 16,9 29,5 25,7 23,1 11 6 24 13 NE 1016,3 39 0,0
18.09.2018 17:00:00 28,3 17,2 32,0 25,3 23,1 5 3 14 7 NNE 1016,4 45 0,0
18.09.2018 16:00:00 27,7 17,2 29,9 24,8 23,0 4 2 22 12 E 1016,6 38 0,0
18.09.2018 15:00:00 26,1 17,7 31,7 24,4 23,0 13 7 23 13 N 1016,8 23 0,0
18.09.2018 14:00:00 25,5 17,7 26,4 24,2 23,0 9 5 20 11 NE 1017,1 24 0,0
18.09.2018 13:00:00 23,5 18,2 26,4 24,0 23,0 11 6 20 11 NE 1017,2 19 0,0
18.09.2018 12:00:00 23,3 18,8 23,1 23,9 23,0 8 4 16 9 NE 1017,6 18 0,0
18.09.2018 11:00:00 20,9 18,7 20,7 23,9 23,0 8 4 15 8 N 1017,5 12 0,0
18.09.2018 10:00:00 20,1 18,2 19,4 24,0 23,0 5 3 9 5 ESE 1016,6 11 0,0
18.09.2018 09:00:00 19,1 18,1 18,0 24,1 23,0 3 2 9 5 WNW 1016,6 9 0,0
18.09.2018 08:00:00 19,0 17,8 18,2 24,2 23,0 9 5 12 7 WNW 1016,1 7 0,0
18.09.2018 07:00:00 19,5 17,8 18,1 24,4 23,0 5 3 13 7 SW 1015,8 10 0,0
18.09.2018 06:00:00 19,8 18,1 18,6 24,5 23,0 2 1 25 14 ENE 1015,3 15 0,0
18.09.2018 05:00:00 19,7 17,7 19,0 24,6 23,0 13 7 22 12 N 1013,8 12 0,0
18.09.2018 04:00:00 19,6 17,6 18,8 24,8 23,0 6 4 11 6 N 1014,9 13 0,0
18.09.2018 03:00:00 20,1 16,7 18,9 25,0 23,0 6 3 16 9 W 1015,6 22 0,0
18.09.2018 02:00:00 21,0 15,8 18,9 25,2 23,0 13 7 19 11 W 1015,7 30 0,0
18.09.2018 01:00:00 20,8 15,1 17,3 25,4 23,0 4 2 11 6 SW 1014,9 26 0,0
18.09.2018 00:00:00 21,0 15,5 17,2 25,7 23,0 0 0 5 3 N 1014,0 28 0,0
17.09.2018 23:00:00 22,0 15,1 18,5 25,9 23,0 4 2 10 5 SSE 1014,1 28 0,0
17.09.2018 22:00:00 24,0 15,0 19,8 26,0 23,0 3 2 10 5 W 1013,7 36 0,0
17.09.2018 21:00:00 26,6 14,7 22,5 26,1 23,0 6 3 12 7 W 1013,1 31 0,0
17.09.2018 20:00:00 29,2 14,2 27,7 26,1 23,0 9 5 22 12 W 1012,4 59 0,0
17.09.2018 19:00:00 31,8 14,9 33,2 25,9 23,0 16 8 26 14 W 1012,6 39 0,0
17.09.2018 18:00:00 32,8 15,8 36,3 25,5 23,0 16 9 29 16 S 1012,7 32 0,0
17.09.2018 17:00:00 32,6 16,0 37,3 25,0 23,0 16 9 32 17 SSE 1013,3 34 0,0
17.09.2018 16:00:00 32,2 16,9 36,0 24,6 23,0 15 8 27 15 S 1014,0 39 0,0
17.09.2018 15:00:00 30,0 18,1 32,2 24,0 23,0 16 8 29 16 SE 1014,7 31 0,0
17.09.2018 14:00:00 27,8 17,6 31,4 23,6 23,0 18 10 29 15 SE 1015,7 31 0,0
17.09.2018 13:00:00 26,1 18,0 27,5 23,2 23,0 16 9 24 13 ESE 1016,4 25 0,0
17.09.2018 12:00:00 23,6 18,0 25,1 23,1 23,0 13 7 22 12 SE 1017,4 19 0,0
17.09.2018 11:00:00 21,3 17,3 21,9 23,0 23,0 16 8 25 13 SSE 1017,8 20 0,0
17.09.2018 10:00:00 19,2 15,3 18,8 23,1 23,0 11 6 16 9 SE 1017,8 26 0,0
17.09.2018 09:00:00 17,0 15,2 15,1 23,2 23,0 6 4 13 7 SE 1018,1 8 0,0
17.09.2018 08:00:00 15,0 13,5 12,8 23,3 22,9 6 4 8 4 SE 1018,1 10 0,0
17.09.2018 07:00:00 14,0 12,9 11,8 23,5 23,0 6 3 7 4 SSW 1018,5 8 0,0
17.09.2018 06:00:00 14,0 12,7 11,4 23,8 23,0 2 1 7 4 S 1018,7 0,7 0,0
17.09.2018 05:00:00 14,5 12,7 11,6 24,0 23,0 6 3 7 4 SW 1019,0 4,8 0,0
17.09.2018 04:00:00 15,6 13,3 13,2 24,2 23,0 4 2 6 3 W 1019,3 14 0,0
17.09.2018 03:00:00 16,4 13,9 13,8 24,4 22,9 3 1 9 5 W 1019,5 2,0 0,0
17.09.2018 02:00:00 17,5 14,6 15,2 24,6 23,0 9 5 13 7 W 1020,1 28 0,0
17.09.2018 01:00:00 18,3 14,2 15,9 24,8 23,0 6 3 8 5 SW 1020,3 41 0,0
17.09.2018 00:00:00 19,5 13,0 18,1 25,0 22,9 2 1 12 7 SSE 1020,6 57 0,0
16.09.2018 23:00:00 20,5 13,2 18,5 25,2 23,0 7 4 9 5 WSW 1020,7 60 0,0
16.09.2018 22:00:00 21,9 10,4 20,1 25,3 23,0 6 3 12 7 SW 1020,4 60 0,0
16.09.2018 21:00:00 22,6 10,4 20,1 25,5 23,0 5 3 14 8 N 1020,1 60 0,0
16.09.2018 20:00:00 24,4 11,4 23,6 25,5 23,0 11 6 19 10 N 1019,9 60 0,0
16.09.2018 19:00:00 26,3 11,6 27,1 25,4 23,0 13 7 21 11 N 1019,1 60 0,0
16.09.2018 18:00:00 28,0 10,7 30,4 25,1 23,0 16 9 27 14 NNW 1018,9 53 0,0
16.09.2018 17:00:00 29,4 10,0 32,6 24,7 23,0 16 9 24 13 NW 1018,7 51 0,0
16.09.2018 16:00:00 29,5 10,1 33,6 24,2 23,0 8 4 19 10 ENE 1019,0 10 0,0
16.09.2018 15:00:00 29,1 10,7 34,1 23,6 23,0 6 3 23 12 N 1019,3 20 0,0
16.09.2018 14:00:00 27,9 10,6 33,3 23,1 23,0 6 3 19 10 ENE 1019,7 36 0,0
16.09.2018 13:00:00 27,4 11,0 31,5 22,6 23,0 5 3 14 8 E 1020,1 48 0,0
16.09.2018 12:00:00 26,0 11,4 28,3 22,3 23,0 7 4 15 8 ESE 1020,5 54 0,0
16.09.2018 11:00:00 23,4 11,4 24,4 22,2 23,0 6 3 12 7 ESE 1020,4 44 0,0
16.09.2018 10:00:00 19,5 12,0 18,7 22,2 23,0 4 2 11 6 ESE 1020,1 34 0,0
16.09.2018 09:00:00 15,4 12,0 8,1 22,5 23,0 5 3 6 4 ESE 1020,2 37 0,0
16.09.2018 08:00:00 10,3 9,2 6,8 22,7 23,0 0 0 4 2 N 1020,2 3,8 0,0
16.09.2018 07:00:00 10,4 8,5 6,7 23,0 23,1 0 0 3 2 N 1019,6 16 0,0
16.09.2018 06:00:00 10,9 9,2 7,5 23,2 23,0 0 0 3 2 N 1019,3 13 0,0
16.09.2018 05:00:00 10,9 8,3 7,8 23,5 23,0 0 0 2 1 N 1019,1 22 0,0
16.09.2018 04:00:00 11,9 9,6 8,3 23,7 23,0 0 0 4 2 N 1019,5 30 0,0
16.09.2018 03:00:00 12,4 8,9 8,5 24,0 23,0 0 0 3 2 N 1020,0 41 0,0
16.09.2018 02:00:00 13,4 9,1 9,1 24,3 23,0 3 1 4 2 N 1020,4 49 0,0
16.09.2018 01:00:00 13,8 9,4 9,8 24,6 23,0 2 1 4 2 NNW 1020,6 48 0,0
16.09.2018 00:00:00 15,1 9,2 10,4 24,9 23,0 0 0 6 3 N 1021,0 55 0,0
15.09.2018 23:00:00 16,4 9,3 11,7 25,2 23,0 3 1 5 3 WNW 1021,1 57 0,0
15.09.2018 22:00:00 17,9 10,0 12,8 25,4 23,1 3 2 8 5 NW 1021,1 51 0,0
15.09.2018 21:00:00 20,6 9,2 14,8 25,6 23,0 0 0 13 7 N 1020,8 59 0,0
15.09.2018 20:00:00 24,8 9,1 23,2 25,6 23,1 9 5 18 10 NNE 1020,6 60 0,0
15.09.2018 19:00:00 26,2 8,7 28,9 25,4 23,1 11 6 24 13 NE 1020,2 53 0,0
15.09.2018 18:00:00 26,6 8,1 31,3 25,1 23,1 9 5 23 12 NE 1020,5 55 0,0
15.09.2018 17:00:00 26,9 7,4 32,1 24,6 23,1 8 4 20 11 E 1020,9 48 0,0
15.09.2018 16:00:00 26,2 7,7 30,6 24,1 23,1 12 6 21 12 NE 1021,6 8 0,0
15.09.2018 15:00:00 25,6 8,6 31,5 23,5 23,1 9 5 24 13 SE 1022,0 47 0,0
15.09.2018 14:00:00 24,3 7,9 29,9 23,0 23,1 10 5 24 13 ENE 1022,6 38 0,0
15.09.2018 13:00:00 23,4 9,4 28,1 22,6 23,1 10 6 22 12 ENE 1023,1 60 0,0
15.09.2018 12:00:00 22,3 10,4 25,7 22,4 23,1 11 6 20 11 NE 1023,9 39 0,0
15.09.2018 11:00:00 19,6 10,6 21,5 22,3 23,1 5 3 16 9 NNE 1024,2 43 0,0
15.09.2018 10:00:00 17,3 10,4 17,6 22,4 23,1 9 5 15 8 NE 1024,2 59 0,0
15.09.2018 09:00:00 14,8 10,0 12,2 22,6 23,1 10 5 14 7 NE 1024,0 52 0,0
15.09.2018 08:00:00 12,5 9,9 9,1 22,8 23,1 4 2 10 5 NNE 1023,7 49 0,0
15.09.2018 07:00:00 12,3 10,0 8,5 23,0 23,1 5 3 13 7 NNE 1023,5 22 0,0
15.09.2018 06:00:00 13,0 10,2 9,9 23,2 23,1 4 2 10 6 NNE 1023,2 29 0,0
15.09.2018 05:00:00 12,9 10,6 9,7 23,4 23,1 3 2 8 4 NNE 1023,1 40 0,0
15.09.2018 04:00:00 13,0 11,1 9,5 23,7 23,1 6 3 12 6 N 1023,1 29 0,0
15.09.2018 03:00:00 12,8 10,9 9,6 24,0 23,1 4 2 5 3 NNW 1023,4 9 0,0
15.09.2018 02:00:00 13,8 11,1 11,7 24,2 23,1 3 2 6 3 WNW 1023,6 30 0,0
15.09.2018 01:00:00 14,3 11,3 11,6 24,5 23,1 0 0 6 3 N 1023,6 58 0,0
15.09.2018 00:00:00 15,3 10,7 13,7 24,7 23,1 3 1 22 12 NNW 1023,5 60 0,0
14.09.2018 23:00:00 16,3 10,2 15,4 25,0 23,1 10 5 20 11 NNW 1023,4 60 0,0
14.09.2018 22:00:00 17,8 10,2 16,9 25,2 23,1 12 6 22 12 NNW 1023,1 60 0,0
14.09.2018 21:00:00 19,6 10,6 18,5 25,3 23,1 12 6 23 12 NNW 1022,4 60 0,0
14.09.2018 20:00:00 21,7 11,1 21,3 25,3 23,1 20 11 27 15 NNW 1021,7 60 0,0
14.09.2018 19:00:00 23,4 11,4 24,7 25,2 23,1 18 10 25 13 N 1021,5 53 0,0
14.09.2018 18:00:00 23,8 11,5 26,2 25,0 23,2 19 10 33 18 N 1021,4 54 0,0
14.09.2018 17:00:00 24,8 12,1 28,3 24,7 23,2 8 4 23 12 N 1021,1 58 0,0
14.09.2018 16:00:00 24,0 13,2 28,1 24,2 23,1 12 6 27 15 N 1021,2 51 0,0
14.09.2018 15:00:00 23,6 14,6 26,5 24,0 23,2 16 8 28 15 N 1021,5 43 0,0
14.09.2018 14:00:00 22,7 14,3 23,8 23,7 23,2 10 6 21 11 N 1021,9 58 0,0
14.09.2018 13:00:00 22,9 14,5 24,7 23,4 23,2 6 3 17 9 E 1021,9 60 0,0
14.09.2018 12:00:00 21,4 15,9 22,8 23,3 23,2 6 3 17 9 N 1022,4 53 0,0
14.09.2018 11:00:00 19,9 15,9 21,4 23,2 23,2 4 2 13 7 N 1022,3 47 0,0
14.09.2018 10:00:00 18,5 16,3 18,3 23,2 23,2 6 3 15 8 N 1021,8 34 0,0
14.09.2018 09:00:00 17,2 15,9 16,3 23,3 23,2 4 2 19 11 NNW 1021,5 14 0,0
14.09.2018 08:00:00 16,2 15,4 16,2 23,4 23,2 5 3 17 9 W 1021,3 12 0,0
14.09.2018 07:00:00 16,1 15,8 15,3 23,5 23,2 3 1 9 5 N 1021,0 13 0,0
14.09.2018 06:00:00 15,4 15,2 14,1 23,7 23,1 3 2 9 5 NNW 1021,0 12 0,0

tt = Température de l'air
td = dewpoint
tt 5cm = Température de l'air 5cm
tt -20cm = Température de l'air -20cm
tt -100cm = Température de l'air -100cm
ff = Vitesse du vent
fx = gusts
dd = Direction du vent
ppp = reduced air pressure
vv = visibility
rr = Quantités de précipitations

stations d'obs. à proximité